Starlink 32658

operational
NORAD ID: 62999 Int'l Des: 2025-031 Owner: SPXS Country: US Constellation: starlink
LEOCIRCULAR

About Starlink 32658

Description loading...

Live Position

Loading 3D Globe...

Upcoming Passes

Altitude History

Altitude vs Time

uPlot chart will show altitude changes over time

Two-Line Element Set

1 62999U 25031U 25350.43165867 .00026442 00000-0 96646-3 0 9993
2 62999 42.9989 253.3860 0000668 298.5144 61.5640 15.27596954 48364
Epoch: Dec 16, 2025 • Age: 24 hours

Current Status

Altitude 485.9 km
Velocity 7.63 km/s
Sub-Earth Point 41.53°N, 78.85°E
Launch Date Feb 11, 2025
Age 0.8 years
Type internet

Technical Details

Classification Payload
Mass 730.00 kg
Dry Mass 700.00 kg
Total Mass 730.00 kg
Length 0.30 m
Diameter 4.10 m
Span 29.00 m
Shape Box + pan
Manufacturer SPXS
Bus Type Starlink V2M
Phase Status In Orbit
Owner/State SPXS/US

Large Constellations

Loading constellations...